GFSNGP_925_spd_105.txt.gz
Wind_Speed
17 19 18 13 11 14 5 5 4 5 6 8 12 12 13 13 15 16 19 19 17 17 17 25 27 28 30 31 32 31 29 28 26 21 5 9 10 11 9 7 5 6 6 6
18 15 2 14 19 17 11 12 10 12 8 8 10 12 16 16 16 17 17 18 18 18 18 23 28 28 28 30 30 30 28 26 28 26 20 16 8 6 7 10 9 8 7 7
5 14 11 10 10 14 11 16 9 5 6 7 12 15 15 15 15 15 15 15 17 18 19 24 27 28 28 29 28 27 26 34 31 33 30 26 16 10 8 7 9 8 6 2
4 8 4 6 6 12 17 13 12 11 9 9 11 10 11 11 12 15 16 17 16 19 23 26 29 28 26 28 30 30 32 32 34 31 33 32 30 27 19 11 12 10 8 7
2 7 7 2 7 6 5 6 11 8 5 3 7 2 9 13 11 11 13 15 18 22 24 27 28 29 27 30 30 31 32 33 32 30 30 32 32 31 29 24 21 17 15 13
2 4 3 3 13 10 5 3 9 9 8 8 5 4 3 10 11 12 17 20 21 24 25 29 29 28 30 30 31 32 31 31 34 33 30 29 29 32 29 28 27 21 27 25
4 4 5 10 15 5 3 1 7 8 9 11 5 4 3 7 11 16 17 20 23 24 26 27 29 27 30 31 32 29 30 33 36 35 35 32 30 32 28 33 28 25 26 31
3 3 4 15 3 3 5 7 7 6 6 7 5 5 5 8 9 14 17 20 23 21 24 27 30 28 28 31 29 31 33 34 36 35 34 36 36 34 33 33 26 26 23 26
5 3 4 6 9 9 6 8 5 8 6 6 6 7 7 8 9 14 17 19 21 21 21 27 31 29 27 28 26 29 33 34 33 34 34 35 35 32 30 30 26 26 22 25
1 4 7 7 7 9 8 8 8 7 7 6 7 5 6 7 9 12 18 20 21 22 24 25 28 30 29 29 28 25 27 29 30 30 31 32 33 33 32 30 24 24 22 24
5 5 6 7 6 7 9 9 10 10 8 6 6 7 5 4 9 13 15 18 20 18 19 22 27 31 31 30 27 24 23 24 24 24 28 27 31 32 29 33 31 23 23 24
2 6 4 3 5 6 7 7 7 8 9 11 8 5 9 8 11 13 14 15 17 19 21 24 28 30 29 29 27 24 22 22 23 22 23 23 22 22 25 30 29 29 27 25
4 4 9 8 6 7 8 9 11 11 10 7 10 8 11 9 12 13 14 16 17 17 20 23 25 26 27 26 25 26 25 22 22 23 22 21 20 19 18 18 20 26 26 27
13 15 9 7 5 9 12 12 13 11 11 11 12 10 10 11 12 13 15 14 16 19 21 23 24 25 22 22 21 21 21 19 20 21 21 19 18 18 19 20 19 22 21 22
4 2 8 13 12 10 14 12 9 7 9 11 13 11 11 13 14 16 13 14 14 19 21 23 24 23 21 18 19 21 20 18 17 17 19 19 18 18 18 19 20 20 22 21
10 13 12 11 10 9 9 8 8 7 8 10 12 10 10 12 14 15 15 16 19 19 19 20 20 19 18 16 15 16 15 15 14 14 14 16 16 17 17 18 19 20 21 20
12 11 10 10 10 10 7 7 9 8 9 10 9 8 7 9 10 9 11 12 14 15 17 16 17 15 14 14 14 14 13 11 12 12 11 10 11 13 13 14 15 16 16 16
7 8 11 13 11 10 8 10 10 10 10 9 9 9 10 10 9 9 8 7 8 10 16 17 12 11 12 13 13 11 11 10 10 11 10 9 8 7 9 10 11 12 12 13
17 15 15 14 14 14 12 12 12 13 12 11 10 11 9 7 5 5 6 6 10 10 13 16 12 9 11 12 12 11 10 10 9 9 7 7 7 6 5 6 7 7 8 9
16 16 17 16 16 17 17 16 16 14 12 10 10 8 6 4 1 2 1 4 7 6 8 12 12 9 9 10 11 11 10 9 9 9 8 7 6 5 5 4 3 4 5 5
13 17 18 19 17 16 17 16 15 13 11 8 7 6 4 2 1 1 3 3 4 6 4 7 11 9 7 7 8 9 9 9 9 9 8 7 5 4 4 4 4 3 2 2
16 17 18 20 20 18 14 12 10 10 9 8 6 2 2 1 2 2 3 6 5 7 6 6 7 9 7 7 7 7 8 8 8 8 8 10 8 4 4 4 4 4 3 3
18 20 20 18 18 16 13 11 10 7 6 5 4 4 3 3 4 5 7 7 7 7 7 7 7 8 8 9 10 9 9 10 10 9 9 9 8 6 8 7 7 6 6 6
19 19 17 15 13 13 11 12 9 7 4 3 5 5 5 7 7 5 6 7 8 9 9 9 9 10 12 12 12 13 12 11 12 11 10 9 9 9 10 10 9 8 8 8
21 19 17 16 14 12 8 8 8 7 5 6 7 9 12 13 14 13 12 11 12 12 12 12 14 16 16 17 16 16 17 16 14 14 13 12 12 12 12 11 11 10 10 10
18 16 18 16 12 11 9 7 7 4 7 10 10 8 6 7 10 13 13 12 13 14 15 14 14 15 16 16 15 18 19 20 19 18 17 15 14 13 14 14 12 11 10 11
14 15 13 11 10 7 7 8 10 6 4 4 6 5 5 7 8 9 9 10 11 12 14 15 15 15 15 15 16 17 16 15 15 15 17 20 16 15 15 14 14 13 13 12

GFSNGP_925_spd_108.txt.gz
Wind_Speed
15 17 13 5 6 14 5 4 3 6 6 8 8 11 13 12 15 17 18 18 19 19 18 28 30 31 32 32 33 31 30 35 32 31 25 22 17 14 10 8 8 7 7 7
13 12 4 4 10 8 11 9 10 12 7 6 8 9 12 15 16 17 17 18 18 20 21 25 29 30 31 32 32 32 32 31 30 34 30 28 22 22 17 16 14 10 9 8
2 18 8 5 6 9 9 15 5 4 5 5 8 12 14 14 15 16 16 17 18 18 21 25 29 29 29 30 31 32 30 33 34 38 32 30 30 28 26 22 17 17 14 10
4 6 3 3 5 11 15 11 10 9 7 6 8 8 12 12 12 15 16 17 17 20 24 28 29 32 29 31 32 32 33 34 35 35 28 32 34 35 33 30 29 26 24 22
3 3 4 6 4 3 5 6 8 4 3 2 7 2 8 13 12 12 12 16 18 21 24 27 31 29 28 30 30 30 32 32 30 27 34 30 29 30 33 33 34 34 34 31
3 3 3 2 8 5 6 2 5 5 5 6 5 3 3 10 10 12 17 20 21 24 24 29 32 29 29 31 31 33 33 30 30 31 30 32 32 29 29 29 32 36 35 34
3 4 4 6 11 6 2 3 5 7 7 6 5 3 3 7 10 15 17 20 22 23 25 29 30 28 29 31 34 30 30 33 36 36 34 32 33 33 33 31 31 30 36 33
3 3 3 11 1 1 5 6 8 8 6 9 7 6 5 7 8 15 17 19 24 20 23 26 29 26 28 30 28 32 34 36 36 34 34 34 31 31 31 29 31 29 28 30
4 3 3 5 9 7 6 7 5 8 7 6 5 5 6 7 8 13 17 19 21 23 22 27 29 28 28 28 27 26 32 33 33 35 35 33 33 31 29 29 26 24 25 26
2 3 6 6 8 7 8 9 9 9 8 7 7 6 6 6 9 12 17 19 20 20 22 26 31 33 30 30 24 27 27 26 29 29 31 32 32 31 33 29 26 26 25 24
4 6 7 7 5 9 10 9 10 10 9 6 8 7 5 3 10 14 16 19 20 19 20 24 28 31 31 31 28 23 25 27 28 29 29 27 28 31 30 34 32 27 25 26
3 5 4 6 5 8 9 7 7 9 9 10 9 6 10 9 11 12 13 15 17 18 20 23 26 29 30 29 29 28 24 25 28 27 26 26 24 23 23 25 28 29 29 27
4 3 8 11 6 8 9 9 11 11 10 8 9 10 10 9 10 10 12 15 18 18 21 23 26 27 28 29 27 27 26 24 25 27 26 26 26 26 24 22 22 26 26 26
13 13 8 2 5 10 14 13 14 13 12 11 12 10 8 9 10 9 12 11 15 17 20 21 23 24 22 22 23 23 22 22 24 25 25 25 24 24 24 24 22 27 25 23
4 3 7 14 13 12 15 13 10 8 9 9 11 10 8 10 12 12 11 11 12 16 18 19 20 22 21 20 21 21 22 21 20 20 21 21 22 23 23 24 24 25 26 25
8 11 12 12 11 10 9 8 8 7 9 9 9 8 8 11 12 12 12 14 17 17 15 17 18 19 19 18 19 20 19 19 18 18 17 18 19 20 20 21 22 23 24 23
12 10 11 10 10 10 8 8 8 8 9 9 9 9 9 8 8 9 10 9 12 16 17 15 17 16 16 18 18 18 18 17 16 16 16 15 14 15 15 16 17 18 18 18
4 7 10 11 11 9 8 9 11 11 10 10 10 10 10 10 10 9 9 11 9 13 18 16 14 14 16 17 18 18 17 17 16 15 14 14 13 12 12 13 13 13 13 13
12 12 14 14 15 14 11 11 13 13 13 12 12 12 11 9 6 5 6 9 11 12 15 16 15 15 15 16 17 17 16 15 15 14 14 12 12 11 9 9 10 10 10 10
13 14 16 15 15 17 16 15 17 15 13 11 11 10 7 4 2 0 0 6 9 9 10 12 15 14 14 14 15 15 15 15 14 13 13 12 11 10 10 9 8 9 9 7
13 16 17 18 16 17 19 19 18 16 13 10 9 8 5 2 3 4 3 6 7 9 10 10 11 13 13 13 13 13 13 13 14 13 12 14 14 12 10 10 10 9 8 7
15 16 19 20 21 19 17 15 13 13 11 10 6 4 5 3 2 4 5 6 7 8 9 9 9 10 11 12 12 12 12 12 13 13 13 14 14 12 10 10 11 10 9 8
18 21 22 22 22 20 16 12 10 9 9 6 5 3 3 1 4 3 5 6 7 8 9 9 10 11 12 13 14 15 16 15 15 14 14 14 14 13 12 13 13 13 12 11
20 20 21 19 19 17 13 12 10 7 5 5 4 2 1 3 6 6 4 6 8 10 12 12 13 14 16 18 19 19 19 19 19 18 17 16 15 15 15 16 15 14 13 13
22 21 21 20 17 14 11 11 8 7 6 5 4 2 4 6 8 10 10 12 13 12 13 15 16 16 17 18 20 20 20 19 22 23 21 21 19 17 16 16 16 16 15 14
20 18 20 17 15 14 12 10 8 7 5 6 4 3 2 5 7 9 8 7 8 11 12 12 14 16 16 18 19 20 21 21 21 19 18 19 20 20 20 17 16 17 16 15
16 18 16 13 10 10 10 8 8 6 3 1 2 0 2 5 6 7 6 7 8 10 12 13 14 16 18 19 19 20 19 19 16 14 16 18 18 18 18 18 19 20 17 15

GFSNGP_925_spd_114.txt.gz
Wind_Speed
14 16 13 12 12 11 7 9 9 3 6 6 5 7 10 11 13 15 16 18 18 19 16 25 27 30 32 34 36 39 32 38 35 33 35 34 35 31 30 32 30 28 28 25
10 14 15 5 4 8 4 3 5 12 8 4 5 6 10 12 14 15 16 18 19 19 24 26 32 32 33 35 37 37 39 38 38 35 39 38 41 34 36 35 34 32 30 26
2 1 9 6 2 3 4 5 1 3 7 6 7 10 11 12 13 14 16 16 17 18 24 29 30 30 31 32 34 37 38 38 36 38 40 35 39 41 41 35 35 37 36 34
2 7 5 5 5 8 8 6 8 12 10 10 10 10 11 12 12 14 15 17 17 23 26 29 31 33 32 34 36 37 36 38 39 40 40 39 43 38 40 30 37 34 35 33
4 9 4 8 6 4 1 4 1 6 8 9 8 7 12 12 12 12 13 17 18 20 22 25 29 30 31 35 35 36 38 38 37 38 37 37 41 36 36 34 39 40 41 38
6 4 4 6 5 2 1 4 3 4 6 8 8 3 4 9 11 13 16 18 18 20 20 25 28 28 29 31 33 34 33 33 35 36 34 36 33 28 31 34 34 31 38 35
10 4 4 4 1 4 4 4 5 5 6 9 4 6 7 6 9 12 13 18 17 20 22 24 24 24 27 29 31 28 28 31 32 33 33 33 31 32 29 30 33 30 29 32
3 3 4 4 5 4 7 9 9 10 10 14 13 11 9 7 8 11 13 17 19 20 22 23 26 25 26 29 26 25 27 29 31 32 33 32 31 30 31 29 28 26 25 25
4 4 4 6 10 11 9 13 12 12 11 11 12 10 9 7 8 10 12 13 15 18 20 24 26 27 26 25 25 25 25 27 27 28 31 30 32 31 31 29 27 27 26 25
5 4 7 8 8 10 11 12 11 11 11 10 11 9 8 7 8 9 12 13 14 17 20 21 23 25 24 24 22 24 24 23 23 25 24 27 26 27 29 29 26 26 24 25
4 6 8 6 8 12 13 13 13 11 11 11 11 9 8 6 8 9 11 12 14 15 17 20 20 22 23 23 22 21 22 23 23 22 22 20 22 26 24 28 26 25 24 21
2 12 1 13 11 14 14 13 12 13 12 12 11 9 10 9 8 10 11 11 13 15 16 17 18 19 21 22 21 20 20 20 21 20 20 20 19 16 20 22 24 25 23 24
4 8 9 15 14 14 14 13 14 13 14 11 11 11 10 10 10 10 11 11 12 13 14 15 16 18 19 19 19 20 21 19 19 19 19 19 19 18 17 16 17 22 24 24
14 17 14 15 9 14 16 15 15 14 13 13 13 11 11 11 10 10 10 9 10 11 11 12 13 15 15 16 16 17 16 17 17 17 18 18 17 17 16 17 18 19 19 22
12 3 13 14 16 15 17 16 13 12 14 13 12 12 11 11 10 9 8 8 9 10 12 12 13 15 15 14 14 16 17 16 14 14 15 15 15 16 16 17 17 17 19 20
8 12 16 17 15 14 13 13 12 12 14 14 13 12 11 11 11 9 9 9 9 9 9 9 10 12 13 13 13 13 13 16 14 15 15 15 15 15 15 15 14 15 15 19
16 16 16 16 15 15 13 13 13 14 15 14 14 13 13 11 10 9 7 8 8 5 5 6 8 11 12 14 12 12 12 12 13 12 12 13 12 12 13 13 14 15 15 15
7 13 15 16 15 14 13 14 16 16 15 16 14 12 11 9 10 8 6 5 4 4 5 7 8 8 11 11 11 11 11 11 11 11 11 12 12 12 12 12 12 12 12 11
12 15 16 17 18 17 17 16 16 15 16 16 15 11 10 10 9 7 5 3 2 1 3 6 5 6 7 9 9 10 10 11 11 11 11 11 12 12 11 12 12 12 12 12
15 16 17 17 16 17 17 14 16 15 15 15 14 11 9 8 7 5 3 2 1 2 1 1 2 3 4 7 8 9 9 10 11 11 11 11 12 12 12 10 11 12 12 12
15 17 17 17 15 14 16 18 19 17 16 15 12 10 9 8 6 5 3 3 3 2 2 2 2 3 4 7 8 10 10 11 12 12 12 12 13 13 13 12 12 12 12 12
15 15 16 16 16 15 16 15 16 18 17 15 12 11 9 6 5 5 6 3 1 3 3 3 4 5 7 10 9 11 12 13 13 14 14 14 15 15 14 14 13 13 12 12
14 15 16 16 17 18 15 15 17 17 17 15 13 10 8 4 5 4 4 6 4 4 4 5 6 8 10 9 10 11 13 14 14 15 16 16 17 17 17 17 17 17 15 13
15 15 15 15 18 17 15 12 12 12 12 11 10 9 6 4 4 5 5 5 6 5 5 5 6 7 9 9 10 12 13 15 16 16 18 18 17 16 15 15 16 17 17 16
16 16 17 19 17 14 15 15 12 11 11 9 7 6 6 5 4 1 3 3 5 2 2 5 6 8 8 9 11 12 14 15 16 16 16 16 16 15 16 16 16 17 18 18
18 17 17 17 14 15 15 15 12 12 11 9 7 7 5 4 3 1 1 1 0 1 2 4 6 8 9 10 12 13 14 15 16 16 16 17 17 17 18 18 18 18 17 17
13 15 16 13 12 13 14 13 12 11 9 7 6 7 6 4 2 1 0 0 1 2 3 5 7 8 9 11 12 13 14 14 14 15 14 15 15 15 15 15 15 15 15 15

GFSNGP_925_spd_117.txt.gz
Wind_Speed
15 16 15 13 12 12 11 15 10 7 2 4 6 7 9 10 12 14 16 17 17 17 19 27 30 30 30 32 35 34 33 36 36 38 40 41 41 40 39 40 36 32 29 29
11 16 15 15 15 13 9 8 5 2 4 5 7 6 8 10 12 14 16 16 17 18 24 27 29 29 29 33 34 34 38 39 40 39 42 40 42 41 43 42 39 39 38 35
7 3 4 7 9 8 3 3 5 9 8 8 7 8 9 10 11 13 14 15 17 19 24 28 28 30 30 31 34 36 37 39 40 39 44 42 40 40 43 41 37 40 38 36
5 4 8 4 4 4 5 4 7 11 10 9 10 9 9 10 10 12 13 14 15 21 24 26 28 30 29 32 35 37 38 39 41 44 40 39 38 38 40 37 34 41 39 39
4 9 6 8 7 7 7 6 6 11 12 12 12 13 12 10 10 10 11 15 17 19 21 24 28 29 27 31 33 35 36 37 37 37 38 36 35 33 36 30 37 39 34 40
5 7 3 9 11 5 6 6 10 9 12 12 10 3 5 7 8 11 13 14 16 18 20 24 27 26 28 29 31 32 32 31 32 33 34 33 32 33 33 33 34 38 38 33
12 8 4 6 6 5 5 5 9 9 9 10 5 5 10 7 8 10 11 14 14 16 18 22 25 24 26 28 30 27 28 30 33 33 33 33 33 36 33 33 34 32 33 39
10 6 5 2 7 4 6 8 10 12 12 15 14 12 10 8 7 8 10 13 15 16 19 21 24 24 25 27 25 24 25 28 29 32 30 31 33 32 33 33 31 29 29 28
5 4 4 3 7 10 9 12 12 14 13 14 14 11 9 8 7 8 10 11 12 14 16 19 22 24 24 25 23 25 25 27 28 26 31 31 31 33 31 29 28 27 27 26
6 6 6 6 6 9 12 13 14 14 14 13 13 10 9 7 7 8 9 10 10 13 15 18 20 21 21 24 21 22 24 24 23 26 24 27 29 28 31 31 28 27 25 25
4 7 8 6 8 11 13 14 14 13 13 13 13 11 10 7 7 7 7 8 10 12 14 16 17 20 22 23 23 20 19 21 21 22 23 21 20 24 24 27 28 26 26 23
1 14 4 14 12 14 15 13 13 14 13 13 14 11 12 10 8 8 8 9 11 12 14 15 16 18 22 22 22 22 21 22 24 23 22 23 22 18 19 20 23 25 24 24
3 12 10 15 14 15 14 14 15 14 16 13 14 12 11 11 10 8 9 9 10 11 12 14 15 18 19 19 19 20 20 20 20 21 21 21 21 20 19 18 17 21 24 25
12 16 14 16 10 15 16 16 17 16 15 13 13 11 11 11 9 9 9 9 9 10 11 12 13 15 15 16 17 18 17 17 17 17 17 17 18 18 17 18 19 20 20 23
15 2 14 15 18 16 17 18 14 12 14 13 12 11 10 10 9 7 6 7 8 9 10 11 12 14 15 14 14 15 15 15 14 14 15 15 16 16 16 17 17 18 18 19
7 14 17 17 17 16 15 15 14 13 14 13 13 11 11 10 9 8 7 6 5 8 9 10 11 12 13 13 13 13 13 14 14 14 15 16 15 16 16 16 16 17 18 17
14 15 17 16 16 16 15 14 14 15 16 14 14 13 13 11 9 7 6 7 7 7 7 8 9 13 12 13 13 12 12 12 13 14 14 15 15 15 15 16 16 17 17 14
9 12 14 15 14 13 13 15 16 17 15 15 15 13 12 8 8 5 5 4 5 7 7 6 7 9 12 12 11 12 12 13 13 13 14 14 14 15 15 15 15 16 16 16
10 13 15 16 17 16 16 16 17 16 17 17 15 13 10 10 9 6 4 3 2 1 4 5 6 8 9 13 11 11 12 13 13 13 13 14 14 15 15 15 15 16 16 16
12 15 16 16 16 15 15 16 17 16 14 15 15 14 12 9 7 5 2 2 3 3 3 3 5 6 8 9 11 11 13 13 14 14 14 15 14 16 15 15 15 15 15 15
12 13 14 15 16 16 15 16 18 16 14 14 14 12 11 10 8 6 3 2 4 1 1 3 5 6 9 10 12 12 13 14 15 16 16 17 17 17 17 17 17 16 16 16
14 15 15 16 16 16 15 15 15 16 15 13 13 12 12 9 6 3 3 1 2 1 2 4 5 5 10 13 11 12 14 15 16 16 17 18 18 19 20 20 20 19 19 17
15 16 16 17 17 18 16 14 15 15 15 13 14 12 9 7 6 3 2 7 2 2 3 5 2 8 9 10 11 12 14 15 16 17 17 18 20 20 21 20 19 19 19 19
16 16 16 16 18 18 16 14 13 12 12 11 11 11 8 6 3 2 1 2 4 4 5 5 5 7 9 10 11 13 14 16 17 16 18 18 17 19 19 19 19 20 19 19
16 17 17 18 17 15 16 17 14 13 12 11 11 9 6 4 1 3 1 1 2 2 1 1 5 8 9 10 11 13 14 15 16 17 17 18 19 19 19 20 19 20 21 20
17 15 16 17 15 16 16 17 14 14 14 12 10 8 6 5 4 3 2 1 0 1 2 5 6 8 9 10 12 13 14 15 15 15 16 16 17 17 17 18 18 19 18 19
13 14 16 15 14 15 16 15 14 14 12 10 9 9 7 6 4 3 2 1 0 2 3 4 6 8 9 11 12 12 12 13 13 14 14 15 15 16 17 17 18 18 19 19

GFSNGP_925_spd_123.txt.gz
Wind_Speed
4 8 11 12 12 12 7 9 4 5 4 8 7 7 4 5 5 8 11 12 12 13 19 24 25 27 28 32 35 35 33 35 36 34 35 33 34 33 35 41 38 40 44 43
5 11 14 17 14 13 10 9 2 6 3 9 11 8 6 5 6 8 10 11 11 15 19 21 24 26 28 31 32 33 34 36 36 37 37 37 38 33 40 42 40 42 46 45
5 7 6 8 13 12 8 6 4 6 5 14 11 8 6 6 6 7 9 9 11 14 17 20 23 26 27 28 28 31 31 34 37 35 36 35 34 36 41 45 39 48 44 47
3 5 4 5 3 4 4 5 10 12 13 12 13 9 8 6 6 7 8 8 11 13 17 20 22 25 24 26 30 31 33 33 35 34 35 35 36 37 34 35 38 38 38 38
2 3 3 1 2 3 3 5 9 13 15 14 14 13 7 7 8 7 6 8 10 11 13 17 22 23 24 26 28 31 34 34 34 36 34 35 35 35 34 33 36 37 38 43
2 3 3 3 4 5 1 4 12 17 16 15 13 4 4 9 10 10 9 9 11 13 14 21 24 25 27 26 28 29 27 31 30 31 32 31 31 31 31 34 33 34 39 42
6 4 4 5 6 7 1 4 13 16 16 16 6 1 13 12 11 12 11 11 14 16 19 21 23 26 28 27 30 26 27 28 34 34 34 33 33 35 32 32 35 36 37 41
4 4 7 3 4 4 3 4 7 13 13 10 14 13 12 9 8 12 10 12 15 17 19 23 23 26 28 28 26 24 29 27 34 35 36 41 39 37 38 34 34 34 35 35
4 2 1 2 3 1 4 5 3 8 12 18 15 12 11 9 10 12 10 11 15 16 17 21 24 26 27 25 21 26 27 29 26 31 34 36 36 33 33 34 33 33 32 32
3 4 5 3 3 5 7 10 10 13 15 15 16 12 9 8 11 11 10 11 11 14 18 21 22 23 23 24 21 23 27 26 28 23 26 30 32 30 28 31 30 29 29 29
2 4 4 2 6 9 11 14 14 13 14 14 15 11 9 7 13 15 13 13 14 16 18 18 19 21 23 21 21 22 20 24 23 25 26 22 22 27 28 29 30 28 27 27
5 10 5 6 9 13 14 13 13 15 13 15 16 12 16 13 16 15 12 17 17 17 17 15 14 18 19 23 20 21 19 20 24 23 24 25 26 27 23 22 24 29 31 26
3 9 4 13 11 12 14 13 15 14 16 14 17 19 16 12 18 19 19 18 18 18 15 13 14 15 18 16 22 20 23 19 21 23 23 23 26 26 24 25 21 26 27 29
13 14 9 11 7 11 15 16 19 18 19 19 19 19 23 19 20 20 19 19 18 16 13 11 12 13 15 17 17 23 21 22 22 24 25 25 25 24 25 26 24 22 27 29
7 0 9 11 15 12 17 18 13 12 15 12 22 21 21 19 19 18 17 15 13 13 13 13 14 15 15 16 16 16 20 19 19 19 21 21 21 22 23 24 24 24 25 29
6 10 12 15 13 13 13 14 13 9 13 18 19 20 22 22 19 16 15 15 14 14 13 16 16 12 13 14 14 14 14 15 14 14 19 18 19 21 21 21 20 21 22 23
11 12 13 13 12 13 14 12 12 14 18 18 20 22 23 23 18 16 16 16 14 13 12 12 14 15 9 10 11 12 13 15 15 14 14 17 15 15 18 16 16 17 17 18
12 8 12 12 11 9 11 14 18 19 18 22 26 26 24 21 17 18 17 16 15 13 12 12 10 9 12 9 10 13 12 13 15 15 14 17 16 16 17 16 15 15 16 15
15 12 14 15 16 13 14 13 17 23 29 30 28 24 22 22 20 17 16 15 12 12 10 10 9 6 5 9 9 8 10 12 13 14 16 16 17 17 18 18 18 17 17 15
12 16 18 14 15 14 16 22 27 26 28 29 27 23 22 20 19 17 13 10 10 6 8 8 5 5 3 9 7 9 10 11 13 15 16 16 16 18 19 18 19 19 18 18
9 14 14 17 17 20 25 26 27 23 24 27 27 24 23 21 19 17 13 12 9 8 9 8 6 4 5 8 7 9 9 12 13 15 15 16 18 17 17 19 19 19 19 19
13 14 16 19 19 17 22 24 24 24 24 23 21 22 21 19 17 14 7 13 11 9 4 7 8 1 7 6 7 7 10 12 13 13 15 16 15 18 18 18 18 17 18 20
14 16 17 17 18 18 19 21 22 25 25 23 24 23 22 20 18 15 12 13 10 9 8 6 3 4 5 6 6 8 10 11 12 14 13 14 16 15 16 17 16 18 19 19
16 16 16 19 22 20 15 17 21 22 23 22 21 20 15 16 11 9 14 13 13 8 8 6 4 5 3 5 7 9 10 10 11 10 12 14 14 15 15 16 17 19 19 20
16 18 19 19 15 13 17 19 18 18 19 17 19 15 9 14 15 17 14 11 8 8 9 6 3 4 4 6 7 8 9 9 10 11 14 13 13 14 16 17 19 20 20 20
16 14 15 15 15 17 19 19 16 17 17 19 19 15 12 13 17 13 12 11 10 11 9 6 4 4 5 6 6 7 8 9 11 13 13 12 14 16 18 18 20 18 18 18
14 15 14 12 16 19 20 19 20 20 22 23 21 18 16 14 13 14 13 13 12 11 9 5 2 3 4 5 6 7 7 9 11 12 11 13 15 19 19 20 18 17 16 18

GFSNGP_925_spd_129.txt.gz
Wind_Speed
2 4 3 4 5 12 9 11 8 15 11 5 15 15 10 7 6 4 3 4 6 6 10 14 17 20 22 24 28 28 27 29 31 31 31 34 32 34 37 39 39 39 43 46
4 6 7 10 14 15 14 15 12 8 22 6 5 10 7 8 7 5 4 4 5 7 11 13 16 18 20 24 25 25 28 30 31 33 33 33 36 35 38 40 43 48 48 47
5 2 5 6 11 11 5 6 7 10 10 8 5 11 10 9 7 5 5 5 5 6 9 11 13 15 20 21 21 24 27 30 32 32 33 34 32 36 39 40 41 43 45 43
2 2 3 7 3 4 6 8 8 2 3 6 10 8 9 6 6 7 6 6 5 6 7 10 14 17 17 20 23 25 27 28 31 32 32 34 36 36 36 36 39 39 40 42
2 3 7 10 4 4 5 6 6 8 11 12 13 8 3 6 4 4 5 8 7 6 7 12 15 17 20 23 27 28 28 27 27 27 29 34 34 34 33 34 36 37 38 40
3 3 4 4 2 3 3 5 7 9 14 16 10 5 3 10 9 10 10 11 10 9 10 14 14 17 22 23 28 30 28 27 26 26 28 30 32 30 30 30 32 32 36 37
4 4 7 5 5 4 4 5 8 12 15 16 7 2 10 12 11 12 14 13 12 13 14 14 15 17 22 22 22 21 25 28 30 29 29 28 29 31 30 30 31 32 32 34
4 6 11 5 4 6 4 2 6 7 11 11 8 12 14 13 11 15 14 15 14 16 16 15 15 18 20 21 19 18 18 21 26 29 29 31 32 32 33 28 28 28 29 30
9 6 3 4 2 1 3 4 5 10 11 13 14 9 13 13 12 15 18 17 16 17 16 15 15 15 19 17 16 18 20 22 19 22 27 28 29 28 27 26 26 24 25 26
2 4 5 4 1 2 3 5 6 8 15 15 13 15 13 12 12 16 16 19 19 17 16 15 14 16 16 16 16 18 20 21 21 20 19 18 28 27 26 26 23 24 22 23
5 4 4 7 6 5 3 5 9 10 11 14 18 15 14 12 15 17 17 18 18 16 15 13 14 16 14 13 15 18 19 19 19 20 21 22 25 23 27 27 25 22 27 22
6 5 3 4 4 7 7 6 11 14 10 12 17 18 19 14 19 20 18 18 17 15 14 13 14 14 15 13 14 16 15 17 19 20 20 21 21 20 20 21 22 22 22 23
3 2 2 1 5 4 6 9 9 10 13 17 17 22 21 19 19 20 20 18 17 15 13 13 14 15 15 14 15 17 18 16 17 17 17 16 17 18 21 20 19 19 21 21
4 6 3 3 4 7 7 10 14 14 16 19 21 22 21 20 22 20 19 19 18 17 15 13 12 15 15 13 13 15 16 14 14 15 15 15 15 16 17 18 19 20 20 19
6 3 3 6 7 8 14 14 11 11 13 15 21 21 22 21 19 19 22 19 17 17 15 13 13 13 11 10 10 9 11 12 12 10 11 13 13 14 15 16 17 17 17 18
3 4 6 7 9 10 12 11 12 12 11 16 18 20 21 21 22 24 22 21 22 19 18 16 14 12 11 10 10 9 9 7 9 10 10 11 12 13 14 14 15 16 18 20
6 3 5 8 10 11 11 10 10 11 16 18 17 21 23 23 22 21 19 17 16 19 18 16 15 12 10 8 7 8 7 7 8 8 10 11 12 14 14 14 15 15 16 16
2 4 6 7 10 9 9 12 15 17 17 19 21 22 22 22 19 21 20 20 21 19 18 16 14 11 8 6 4 4 5 5 6 8 8 10 11 11 12 12 13 14 13 14
7 7 8 9 11 11 12 14 17 18 22 23 22 18 19 21 25 25 23 23 22 22 19 18 14 11 6 4 4 1 2 3 4 6 7 8 9 10 10 10 10 11 13 14
5 9 12 13 15 17 16 19 22 20 22 23 21 20 19 21 24 25 23 21 21 17 20 16 12 8 4 5 2 1 1 2 3 5 6 7 8 9 9 8 10 11 12 13
7 11 12 12 11 17 23 26 24 19 22 25 23 21 22 24 26 25 21 15 17 15 17 12 10 9 3 2 2 1 1 2 3 5 5 7 7 7 6 7 9 10 12 13
8 7 9 13 13 13 18 23 23 24 24 21 19 21 24 24 24 23 19 17 17 17 17 13 14 7 3 3 3 2 1 1 3 4 5 6 6 6 7 8 10 11 13 14
9 12 13 13 13 14 17 19 23 26 24 24 23 24 25 25 26 20 13 14 18 18 15 13 11 6 5 4 3 2 1 1 3 4 4 5 6 6 7 9 11 13 14 13
13 13 12 14 18 17 12 13 19 20 21 21 20 23 25 22 18 15 11 17 18 17 14 14 10 7 6 3 2 1 1 2 3 3 4 5 5 6 9 11 12 13 12 12
14 14 14 15 11 8 14 17 17 16 17 15 16 20 19 21 22 20 12 20 19 17 17 13 11 8 5 2 0 1 1 2 3 4 4 4 5 8 11 12 12 11 11 12
11 10 11 10 10 15 16 16 13 16 16 15 16 19 16 17 15 19 17 20 19 18 16 14 12 7 3 1 0 0 2 3 4 4 4 5 8 10 13 12 12 12 12 13
9 10 10 9 9 13 17 16 16 15 18 20 19 20 18 19 17 19 21 20 19 18 17 14 10 6 3 1 1 2 3 3 4 4 5 7 9 12 12 12 11 11 12 14

GFSNGP_925_spd_132.txt.gz
Wind_Speed
2 1 1 4 5 7 9 17 9 20 12 15 9 12 14 9 8 7 5 3 4 4 7 11 13 17 18 21 23 24 24 27 28 28 28 28 30 31 35 36 36 35 40 42
5 4 5 7 3 10 16 14 15 13 23 12 3 7 9 12 10 8 6 4 4 5 7 10 12 13 15 19 21 21 25 27 30 31 32 32 31 31 31 33 35 38 40 42
5 3 5 8 8 12 4 6 6 8 10 4 3 6 10 10 9 8 8 6 5 4 6 7 10 11 16 17 19 19 22 27 31 31 33 33 30 30 32 34 34 38 39 41
2 1 5 6 4 5 8 7 9 10 3 2 4 5 7 5 8 10 9 8 6 6 6 8 10 13 16 18 19 20 21 25 30 30 31 32 33 32 31 31 34 36 38 39
2 2 7 6 3 5 5 6 4 4 7 7 10 5 3 6 5 6 6 11 9 7 9 10 12 12 17 21 22 23 23 26 25 27 28 31 32 30 30 32 33 33 35 38
3 3 5 6 3 5 5 5 5 7 11 13 8 5 4 9 9 11 15 14 11 10 11 12 12 13 18 20 24 25 25 27 27 26 29 30 30 29 28 29 30 31 35 38
3 5 6 7 5 4 5 6 5 7 11 13 6 3 6 13 10 16 17 15 12 12 13 13 13 13 17 16 18 20 25 28 29 29 29 30 30 30 28 26 31 31 31 34
4 5 8 5 5 6 4 1 5 5 7 7 5 8 12 11 11 16 16 17 16 16 15 14 12 12 16 17 15 15 20 25 26 29 30 31 33 32 32 30 27 29 29 31
9 7 1 6 3 3 4 4 5 7 7 9 10 6 11 12 12 16 16 18 17 18 16 14 13 11 15 14 13 15 18 19 18 21 28 29 32 31 26 28 26 24 28 28
2 5 6 6 3 3 5 5 5 6 11 13 11 13 11 12 12 16 17 18 18 18 16 15 13 13 13 13 12 15 18 19 18 22 21 24 29 30 28 24 24 25 24 26
4 6 4 9 8 6 5 4 5 9 9 13 14 14 13 12 15 18 18 17 17 16 16 15 14 13 11 11 12 16 17 18 19 20 19 20 24 25 27 26 26 26 27 26
7 4 3 3 2 6 8 6 9 10 11 11 16 16 16 13 19 21 20 19 17 15 16 15 14 13 11 10 11 14 14 16 16 17 19 20 21 21 20 19 20 21 21 22
3 1 3 1 2 3 5 6 8 9 10 15 16 21 22 20 22 23 20 19 19 17 17 16 15 14 12 11 12 13 15 15 15 14 15 15 16 17 19 18 16 15 17 18
3 5 2 2 2 5 4 7 11 10 13 16 19 21 22 20 23 21 21 20 21 21 20 18 16 16 14 12 13 14 15 14 14 14 13 11 13 13 13 14 15 16 16 15
5 1 1 4 5 5 7 10 9 9 10 13 19 20 22 22 21 20 21 21 20 22 20 19 17 17 14 11 11 12 12 11 9 9 9 10 10 10 11 12 13 15 15 15
5 5 4 3 5 6 8 8 10 9 10 14 17 19 19 19 20 23 24 24 25 21 21 19 18 16 13 11 10 11 9 8 8 8 8 8 9 9 10 11 12 14 16 16
5 3 3 3 6 7 8 7 8 10 13 14 17 21 23 21 20 21 22 22 20 22 21 19 18 16 14 11 10 10 8 7 6 6 7 7 8 9 10 11 12 12 14 14
4 3 6 5 7 8 8 9 13 15 15 18 21 22 21 21 19 20 22 19 20 21 19 18 17 16 14 11 9 8 6 6 5 5 5 6 7 8 9 10 11 12 13 14
4 5 5 6 9 8 10 12 16 18 22 24 22 19 18 18 23 25 24 24 25 24 21 19 16 13 11 9 8 6 5 5 4 4 4 5 6 7 7 8 9 10 12 14
5 6 8 9 12 14 12 16 20 20 21 23 21 20 17 19 25 26 25 22 22 20 23 20 16 12 10 10 7 5 4 4 3 3 3 4 5 5 5 6 8 10 11 12
6 9 11 9 9 15 19 23 21 18 20 24 22 19 19 21 24 26 23 15 20 18 22 18 15 12 9 8 7 5 4 3 2 2 3 4 3 3 4 6 8 10 12 14
6 8 8 9 11 14 17 20 20 21 22 20 20 22 20 19 22 21 18 17 23 22 22 17 15 11 8 7 6 4 3 2 1 2 2 2 3 4 5 7 9 12 14 14
7 7 9 10 12 14 16 18 19 22 21 22 22 23 23 22 24 20 13 17 20 23 20 16 15 10 8 6 4 3 2 1 1 1 1 2 4 4 6 9 12 13 14 14
9 9 9 12 15 16 10 13 17 18 20 19 19 21 22 20 16 12 15 19 21 22 19 17 13 10 8 5 4 2 2 1 0 1 2 4 4 5 9 11 12 12 13 13
12 13 13 14 11 8 13 16 16 15 16 16 16 16 17 19 20 19 17 21 22 21 19 15 13 11 8 5 3 2 2 1 1 2 3 3 5 8 11 12 13 14 14 15
11 11 11 9 10 13 14 15 13 15 17 16 15 17 16 16 15 20 18 23 22 19 19 17 14 11 7 4 3 2 1 1 2 3 2 4 7 9 11 12 13 12 13 14
10 12 11 10 9 12 15 15 15 14 17 18 17 18 17 18 19 21 21 23 21 20 18 16 13 10 7 4 3 3 2 2 2 3 4 5 7 10 11 12 12 11 13 15